| time (UTC) | temp C | wind direction | speed KPH | gust KPH | rain 1hr cm | rain 24hr cm | rain mn cm | humidity % | barometer mb |
| 20260506034230 | 13 | 135 | 11.3 | 12.9 | 0.00 | 0.00 | 0.00 | 76 | 1008.0 |
| 20260506033219 | 12 | 135 | 3.2 | 3.2 | 0.00 | 0.00 | 0.00 | 76 | 1007.9 |
| 20260506032208 | 12 | 0 | 3.2 | 4.8 | 0.00 | 0.00 | 0.00 | 75 | 1007.9 |
| 20260506031204 | 12 | 90 | 3.2 | 3.2 | 0.00 | 0.00 | 0.00 | 75 | 1008.0 |
| 20260506030152 | 12 | 90 | 3.2 | 3.2 | 0.00 | 0.00 | 0.00 | 75 | 1007.9 |
| 20260506025243 | 12 | 135 | 6.4 | 8.0 | 0.00 | 0.00 | 0.00 | 72 | 1007.7 |
| 20260506024231 | 13 | 135 | 9.7 | 11.3 | 0.00 | 0.00 | 0.00 | 70 | 1007.7 |
| 20260506023220 | 14 | 135 | 6.4 | 6.4 | 0.00 | 0.00 | 0.00 | 72 | 1008.2 |
| 20260506022209 | 13 | 45 | 1.6 | 3.2 | 0.00 | 0.00 | 0.00 | 70 | 1007.9 |
| 20260506021203 | 13 | 45 | 1.6 | 3.2 | 0.00 | 0.00 | 0.00 | 70 | 1008.2 |
| 20260506020157 | 14 | 0.0 | 3.2 | 0.00 | 0.00 | 0.00 | 68 | 1007.9 | |
| 20260506015655 | 15 | 90 | 3.2 | 3.2 | 0.00 | 0.00 | 0.00 | 68 | 1008.0 |
| 20260506014644 | 15 | 135 | 3.2 | 3.2 | 0.00 | 0.00 | 0.00 | 68 | 1008.0 |
| 20260506013630 | 15 | 225 | 6.4 | 8.0 | 0.00 | 0.00 | 0.00 | 67 | 1008.0 |
| 20260506012618 | 15 | 180 | 6.4 | 9.7 | 0.00 | 0.00 | 0.00 | 66 | 1008.0 |
| 20260506011608 | 15 | 180 | 11.3 | 12.9 | 0.00 | 0.00 | 0.00 | 66 | 1007.8 |
| 20260506010604 | 15 | 180 | 16.1 | 19.3 | 0.00 | 0.00 | 0.00 | 67 | 1007.9 |
| 20260506005657 | 15 | 135 | 9.7 | 11.3 | 0.00 | 0.00 | 0.00 | 66 | 1008.1 |
| 20260506004647 | 15 | 180 | 6.4 | 8.0 | 0.00 | 0.00 | 0.00 | 65 | 1008.2 |
| 20260506003631 | 15 | 135 | 8.0 | 9.7 | 0.00 | 0.00 | 0.00 | 63 | 1008.2 |
| 20260506002641 | 16 | 135 | 9.7 | 12.9 | 0.00 | 0.00 | 0.00 | 62 | 1008.1 |
| 20260506001608 | 16 | 180 | 11.3 | 12.9 | 0.00 | 0.00 | 0.00 | 62 | 1008.1 |
| 20260506000604 | 16 | 180 | 12.9 | 14.5 | 0.00 | 0.00 | 0.00 | 61 | 1008.4 |
| 20260505235242 | 16 | 180 | 12.9 | 16.1 | 0.00 | 0.00 | 0.00 | 61 | 1008.1 |
| 20260505234310 | 16 | 180 | 17.7 | 19.3 | 0.00 | 0.00 | 0.00 | 60 | 1008.1 |
| 20260505233218 | 17 | 180 | 12.9 | 16.1 | 0.00 | 0.00 | 0.00 | 60 | 1008.2 |
| 20260505232207 | 17 | 225 | 11.3 | 14.5 | 0.00 | 0.00 | 0.00 | 60 | 1008.4 |
| 20260505231203 | 17 | 180 | 12.9 | 14.5 | 0.00 | 0.00 | 0.00 | 60 | 1008.2 |
| 20260505230151 | 17 | 180 | 12.9 | 16.1 | 0.00 | 0.00 | 0.00 | 60 | 1008.5 |
| 20260505225417 | 17 | 203 | 11.3 | 12.9 | 0.00 | 0.00 | 0.00 | 60 | 1008.4 |
| 20260505224407 | 17 | 180 | 11.3 | 12.9 | 0.00 | 0.00 | 0.00 | 54 | 1008.3 |
| 20260505223356 | 17 | 180 | 12.9 | 12.9 | 0.00 | 0.00 | 0.00 | 53 | 1008.5 |
| 20260505222346 | 17 | 225 | 14.5 | 24.1 | 0.00 | 0.00 | 0.00 | 53 | 1008.3 |
| 20260505221339 | 17 | 225 | 17.7 | 19.3 | 0.00 | 0.00 | 0.00 | 52 | 1008.3 |
| 20260505220327 | 17 | 225 | 14.5 | 17.7 | 0.00 | 0.00 | 0.00 | 52 | 1008.2 |
| 20260505215420 | 18 | 180 | 14.5 | 17.7 | 0.00 | 0.00 | 0.00 | 51 | 1008.3 |
| 20260505214408 | 18 | 180 | 12.9 | 12.9 | 0.00 | 0.00 | 0.00 | 52 | 1008.2 |
| 20260505213423 | 18 | 203 | 12.9 | 12.9 | 0.00 | 0.00 | 0.00 | 52 | 1008.3 |
| 20260505212346 | 17 | 180 | 14.5 | 17.7 | 0.00 | 0.00 | 0.00 | 53 | 1008.3 |
| 20260505211340 | 18 | 180 | 8.0 | 9.7 | 0.00 | 0.00 | 0.00 | 52 | 1008.2 |
| 20260505210327 | 18 | 180 | 12.9 | 16.1 | 0.00 | 0.00 | 0.00 | 51 | 1008.3 |
| 20260505205417 | 18 | 180 | 8.0 | 11.3 | 0.00 | 0.00 | 0.00 | 51 | 1008.4 |
| 20260505204407 | 18 | 225 | 11.3 | 19.3 | 0.00 | 0.00 | 0.00 | 51 | 1008.4 |
| 20260505203357 | 18 | 225 | 8.0 | 11.3 | 0.00 | 0.00 | 0.00 | 51 | 1008.5 |
| 20260505202406 | 18 | 225 | 9.7 | 11.3 | 0.00 | 0.00 | 0.00 | 50 | 1008.2 |
| 20260505201419 | 19 | 225 | 11.3 | 12.9 | 0.00 | 0.00 | 0.00 | 47 | 1008.3 |
| 20260505200328 | 19 | 225 | 14.5 | 17.7 | 0.00 | 0.00 | 0.00 | 45 | 1008.2 |
| 20260505195421 | 19 | 225 | 14.5 | 17.7 | 0.00 | 0.00 | 0.00 | 45 | 1008.2 |
| 20260505194408 | 20 | 225 | 12.9 | 16.1 | 0.00 | 0.00 | 0.00 | 44 | 1008.2 |
| 20260505193404 | 20 | 270 | 14.5 | 20.9 | 0.00 | 0.00 | 0.00 | 43 | 1008.1 |
| 20260505192354 | 20 | 225 | 17.7 | 20.9 | 0.00 | 0.00 | 0.00 | 43 | 1008.2 |
| 20260505191339 | 21 | 225 | 12.9 | 14.5 | 0.00 | 0.00 | 0.00 | 42 | 1007.7 |
| 20260505190328 | 21 | 225 | 9.7 | 12.9 | 0.00 | 0.00 | 0.00 | 41 | 1007.8 |
| 20260505185421 | 21 | 225 | 17.7 | 24.1 | 0.00 | 0.00 | 0.00 | 41 | 1007.6 |
| 20260505184408 | 21 | 225 | 11.3 | 12.9 | 0.00 | 0.00 | 0.00 | 40 | 1007.6 |
| 20260505183506 | 21 | 225 | 12.9 | 12.9 | 0.00 | 0.00 | 0.00 | 40 | 1007.5 |
| 20260505182355 | 21 | 225 | 11.3 | 12.9 | 0.00 | 0.00 | 0.00 | 40 | 1007.3 |
| 20260505181341 | 22 | 225 | 14.5 | 16.1 | 0.00 | 0.00 | 0.00 | 38 | 1007.3 |
| 20260505180327 | 22 | 225 | 12.9 | 14.5 | 0.00 | 0.00 | 0.00 | 37 | 1007.2 |
| 20260505175419 | 22 | 180 | 16.1 | 19.3 | 0.00 | 0.00 | 0.00 | 32 | 1007.4 |
| 20260505174408 | 23 | 315 | 11.3 | 12.9 | 0.00 | 0.00 | 0.00 | 32 | 1007.3 |
| 20260505173403 | 23 | 270 | 16.1 | 17.7 | 0.00 | 0.00 | 0.00 | 32 | 1007.3 |
| 20260505172352 | 23 | 225 | 20.9 | 24.1 | 0.00 | 0.00 | 0.00 | 31 | 1007.1 |
| 20260505171339 | 24 | 225 | 14.5 | 17.7 | 0.00 | 0.00 | 0.00 | 30 | 1006.7 |
| 20260505170327 | 25 | 270 | 20.9 | 25.7 | 0.00 | 0.00 | 0.00 | 28 | 1006.7 |
| 20260505165418 | 25 | 225 | 17.7 | 19.3 | 0.00 | 0.00 | 0.00 | 26 | 1006.9 |
| 20260505164407 | 26 | 203 | 16.1 | 19.3 | 0.00 | 0.00 | 0.00 | 25 | 1006.9 |
| 20260505163359 | 26 | 225 | 20.9 | 24.1 | 0.00 | 0.00 | 0.00 | 23 | 1007.0 |
| 20260505162348 | 26 | 225 | 19.3 | 22.5 | 0.00 | 0.00 | 0.00 | 22 | 1006.8 |
| 20260505161339 | 26 | 180 | 12.9 | 14.5 | 0.00 | 0.00 | 0.00 | 23 | 1006.9 |
| 20260505160328 | 26 | 135 | 14.5 | 17.7 | 0.00 | 0.00 | 0.00 | 23 | 1007.0 |
| 20260505152352 | 25 | 203 | 12.9 | 16.1 | 0.00 | 0.00 | 0.00 | 24 | 1007.5 |
| 20260505151342 | 25 | 225 | 24.1 | 27.4 | 0.00 | 0.00 | 0.00 | 23 | 1007.5 |
| 20260505150327 | 26 | 225 | 24.1 | 27.4 | 0.00 | 0.00 | 0.00 | 22 | 1007.5 |
| 20260505140328 | 26 | 180 | 17.7 | 24.1 | 0.00 | 0.00 | 0.00 | 25 | 1008.2 |
| 20260505123358 | 27 | 158 | 19.3 | 22.5 | 0.00 | 0.00 | 0.00 | 22 | 1008.7 |
| 20260505122346 | 27 | 135 | 22.5 | 24.1 | 0.00 | 0.00 | 0.00 | 25 | 1008.8 |
| 20260505121338 | 27 | 180 | 22.5 | 24.1 | 0.00 | 0.00 | 0.00 | 23 | 1008.9 |
| 20260505120327 | 27 | 135 | 22.5 | 25.7 | 0.00 | 0.00 | 0.00 | 21 | 1009.0 |
| 20260505115421 | 27 | 180 | 25.7 | 35.4 | 0.00 | 0.00 | 0.00 | 22 | 1009.0 |
| 20260505114408 | 27 | 180 | 25.7 | 29.0 | 0.00 | 0.00 | 0.00 | 23 | 1009.4 |
| 20260505113404 | 26 | 135 | 27.4 | 32.2 | 0.00 | 0.00 | 0.00 | 24 | 1009.4 |
| 20260505112352 | 26 | 180 | 12.9 | 14.5 | 0.00 | 0.00 | 0.00 | 23 | 1009.3 |
| 20260505111339 | 26 | 225 | 19.3 | 20.9 | 0.00 | 0.00 | 0.00 | 25 | 1009.7 |
| 20260505110328 | 26 | 180 | 29.0 | 33.8 | 0.00 | 0.00 | 0.00 | 24 | 1009.8 |
| 20260505101339 | 26 | 180 | 17.7 | 20.9 | 0.00 | 0.00 | 0.00 | 27 | 1010.3 |
| 20260505100328 | 26 | 158 | 17.7 | 19.3 | 0.00 | 0.00 | 0.00 | 28 | 1010.2 |
| 20260505095441 | 25 | 203 | 12.9 | 14.5 | 0.00 | 0.00 | 0.00 | 27 | 1010.5 |
| 20260505094407 | 25 | 180 | 24.1 | 27.4 | 0.00 | 0.00 | 0.00 | 26 | 1010.6 |
| 20260505093357 | 25 | 225 | 19.3 | 22.5 | 0.00 | 0.00 | 0.00 | 26 | 1010.6 |
| 20260505092346 | 25 | 180 | 22.5 | 24.1 | 0.00 | 0.00 | 0.00 | 29 | 1010.7 |
| 20260505091344 | 24 | 225 | 16.1 | 17.7 | 0.00 | 0.00 | 0.00 | 30 | 1010.8 |
| 20260505090347 | 23 | 180 | 22.5 | 25.7 | 0.00 | 0.00 | 0.00 | 30 | 1011.0 |
| 20260505085419 | 23 | 180 | 17.7 | 20.9 | 0.00 | 0.00 | 0.00 | 31 | 1011.1 |
| 20260505084409 | 23 | 180 | 17.7 | 22.5 | 0.00 | 0.00 | 0.00 | 32 | 1011.0 |
| 20260505083406 | 22 | 135 | 12.9 | 14.5 | 0.00 | 0.00 | 0.00 | 32 | 1011.1 |
| 20260505082352 | 22 | 135 | 16.1 | 17.7 | 0.00 | 0.00 | 0.00 | 33 | 1011.3 |
| 20260505081400 | 22 | 158 | 16.1 | 17.7 | 0.00 | 0.00 | 0.00 | 33 | 1011.3 |
| 20260505080327 | 21 | 180 | 17.7 | 19.3 | 0.00 | 0.00 | 0.00 | 38 | 1011.5 |
| 20260505075416 | 21 | 225 | 14.5 | 16.1 | 0.00 | 0.00 | 0.00 | 40 | 1011.2 |
| 20260505074406 | 21 | 180 | 17.7 | 17.7 | 0.00 | 0.00 | 0.00 | 40 | 1011.4 |
| 20260505073357 | 21 | 135 | 16.1 | 19.3 | 0.00 | 0.00 | 0.00 | 40 | 1011.5 |
| 20260505072346 | 20 | 180 | 17.7 | 20.9 | 0.00 | 0.00 | 0.00 | 40 | 1011.6 |
| 20260505071338 | 20 | 180 | 14.5 | 16.1 | 0.00 | 0.00 | 0.00 | 40 | 1011.7 |
| 20260505070327 | 20 | 180 | 14.5 | 16.1 | 0.00 | 0.00 | 0.00 | 40 | 1011.5 |
| 20260505065438 | 19 | 180 | 14.5 | 17.7 | 0.00 | 0.00 | 0.00 | 40 | 1011.8 |
| 20260505064406 | 19 | 180 | 16.1 | 17.7 | 0.00 | 0.00 | 0.00 | 40 | 1011.9 |
| 20260505063356 | 18 | 180 | 12.9 | 12.9 | 0.00 | 0.00 | 0.00 | 40 | 1011.8 |
| 20260505062347 | 18 | 135 | 11.3 | 12.9 | 0.00 | 0.00 | 0.00 | 40 | 1012.0 |
| 20260505061339 | 17 | 158 | 6.4 | 8.0 | 0.00 | 0.00 | 0.00 | 41 | 1011.9 |
| 20260505060327 | 17 | 180 | 8.0 | 9.7 | 0.00 | 0.00 | 0.00 | 42 | 1011.8 |
| 20260505055419 | 17 | 180 | 8.0 | 9.7 | 0.00 | 0.00 | 0.00 | 47 | 1011.8 |
| 20260505054407 | 16 | 135 | 6.4 | 6.4 | 0.00 | 0.00 | 0.00 | 50 | 1011.9 |
| 20260505053403 | 15 | 180 | 3.2 | 3.2 | 0.00 | 0.00 | 0.00 | 52 | 1011.8 |
| 20260505052417 | 13 | 180 | 3.2 | 4.8 | 0.00 | 0.00 | 0.00 | 53 | 1012.1 |
| 20260505051342 | 13 | 0.0 | 0.0 | 0.00 | 0.00 | 0.00 | 55 | 1011.9 | |
| 20260505050347 | 13 | 0.0 | 0.0 | 0.00 | 0.00 | 0.00 | 62 | 1011.7 | |
| 20260505041339 | 7 | 0.0 | 0.0 | 0.00 | 0.00 | 0.00 | 74 | 1011.8 | |
| 20260505040328 | 7 | 0.0 | 0.0 | 0.00 | 0.00 | 0.00 | 74 | 1011.9 | |
| 20260505035446 | 7 | 0.0 | 0.0 | 0.00 | 0.00 | 0.00 | 73 | 1011.6 |